Starlink 32583

operational
NORAD ID: 61955 Int'l Des: 2024-209 Owner: SPXS Country: US Constellation: starlink
LEOCIRCULAR

About Starlink 32583

Description loading...

Live Position

Loading 3D Globe...

Upcoming Passes

Altitude History

Altitude vs Time

uPlot chart will show altitude changes over time

Two-Line Element Set

1 61955U 24209S 25304.61951292 .00044944 00000-0 15230-2 0 9990
2 61955 53.1610 22.0635 0001212 88.7993 271.3147 15.30144645 55156
Epoch: Oct 31, 2025 • Age: 23 hours

Current Status

Altitude 477.5 km
Velocity 7.63 km/s
Sub-Earth Point -7.71°S, 42.23°W
Launch Date Nov 14, 2024
Age 0.9 years
Type internet

Technical Details

Classification Payload
Mass 730.00 kg
Dry Mass 700.00 kg
Total Mass 730.00 kg
Length 0.30 m
Diameter 4.10 m
Span 29.00 m
Shape Box + pan
Manufacturer SPXS
Bus Type Starlink V2M
Phase Status In Orbit
Owner/State SPXS/US

Large Constellations

Loading constellations...